Location: Marcé
(47.5801°N, 0.3280°W)
Time: 21:38:00
(UTC+01:00)

Altair - Pass Details

Date: 11 December 2021
Orbit: 1501 x 1683 km, 47.2° (Epoch: 20 January)

Event Time Altitude Azimuth Distance (km) Brightness Sun altitude
Rises 17:28:58 0° 269° (W) 4,781 11.3 -3.6°
Reaches altitude 10° 17:32:06 10° 270° (W) 3,772 10.7 -4.0°
Maximum altitude 17:41:39 89° 185° (S) 1,538 7.6 -5.4°
Drops below altitude 10° 17:50:54 10° 94° (E) 3,662 9.0 -6.8°
Enters shadow 17:53:27 - 94° (E) 4,491 9.4 -7.2°
Sets 17:53:54 0° 94° (E) 4,635 - -7.2°
